Flag for Indonesia Weather past 2 weeks in Manado, North Sulawesi, Indonesia

Now
75 °F

Passing clouds.


Feels Like: 73 °F
Forecast: 76 / 86 °F
Wind: 1 mph from North

Location: Menado / Dr. Sam Ratulangi

Current Time: Dec 21, 2014 at 11:29:33 PM

Latest Report: Dec 21, 2014 at 11:00 PM


Visibility: 6 mi

Pressure: 29.80 "Hg

Humidity: 100%

Dew point: 75 °F

Location of ManadoLocation

Historic Weather in Manado — Graph

°F

Manado temperature yesterday

Maximum temperature yesterday: 90 °F (at 11:00 AM)
Minimum temperature yesterday: 75 °F (at 5:00 AM)
Average temperature yesterday: 81 °F

Past Weeks' High & Low Weather Summary

 TemperatureHumidityPressure
High90 °F (Dec 8, 3:00 PM)100% (Dec 7, 5:00 AM)29.92 "Hg (Dec 7, 5:00 AM)
Low39 °F (Dec 16, 2:00 PM)18% (Dec 18, 11:00 AM)29.74 "Hg (Dec 7, 1:00 PM)
Average80 °F85%29.82 "Hg
* Reported Dec 6 10:00 PM — Dec 21 10:30 PM, Manado, Weather by CustomWeather, © 2014

Note: Actual official high and low records may vary slightly from our data, if they occured in-between our weather recording intervals... More about our weather records

Advertising

Manado weather history for previous 24 hours

 ConditionsComfort  
Time TempWeatherWind HumidityBarometerVisibility
10:30 PM
Dec 21
75 °FPassing clouds.2 mph100%29.80 "Hg6 mi
10:00 PM77 °FPassing clouds.2 mph94%29.80 "Hg6 mi
9:30 PM77 °FPassing clouds.2 mph94%29.80 "Hg6 mi
9:00 PM77 °FPassing clouds.1 mph94%29.80 "HgN/A
8:30 PM77 °FPassing clouds.No wind94%29.80 "HgN/A
8:00 PM77 °FPassing clouds.2 mph94%29.80 "HgN/A
7:30 PM77 °FPassing clouds.1 mph94%29.80 "HgN/A
7:00 PM77 °FPassing clouds.3 mph94%29.77 "HgN/A
6:30 PM79 °FPassing clouds.No wind94%29.77 "HgN/A
6:00 PM79 °FPassing clouds.No wind94%29.74 "HgN/A
5:30 PM79 °FScattered clouds.No wind94%29.74 "HgN/A
5:00 PM81 °FScattered clouds.No wind89%29.74 "HgN/A
4:30 PM81 °FScattered clouds.No wind89%29.74 "HgN/A
4:00 PM81 °FScattered clouds.2 mph89%29.74 "HgN/A
3:30 PM81 °FScattered clouds.2 mph89%29.74 "HgN/A
3:00 PM79 °FScattered clouds.1 mph89%29.74 "Hg6 mi
2:30 PM77 °FLight rain. Scattered clouds.3 mph94%29.74 "Hg5 mi
2:00 PM77 °FLight rain. Scattered clouds.7 mph94%29.74 "Hg5 mi
1:30 PM77 °FThunderstorms. Scattered clouds.5 mph94%N/A2 mi
1:00 PM77 °FWarm.8 mphN/AN/A2 mi
12:30 PM45 °FThunderstorms. Scattered clouds.3 mph100%29.77 "Hg4 mi
12:00 PM82 °FScattered clouds.3 mph84%29.77 "Hg6 mi
11:30 AM86 °FScattered clouds.6 mph79%29.77 "Hg6 mi
11:00 AM88 °FScattered clouds.6 mph75%29.80 "HgN/A
10:30 AM88 °FScattered clouds.6 mph70%29.80 "HgN/A
10:00 AM84 °FScattered clouds.6 mph74%29.80 "HgN/A
9:30 AM86 °FScattered clouds.3 mph70%29.80 "HgN/A
9:00 AM86 °FPassing clouds.1 mph70%29.80 "HgN/A
8:30 AM86 °FPassing clouds.2 mph75%29.80 "HgN/A
8:00 AM88 °FPassing clouds.No wind70%29.80 "HgN/A
7:00 AM81 °FPassing clouds.2 mph89%29.80 "Hg6 mi
6:30 AM77 °FPassing clouds.2 mph94%29.80 "Hg6 mi
6:00 AM75 °FPassing clouds.1 mph100%29.77 "Hg6 mi
5:30 AM75 °FPassing clouds.2 mph100%29.77 "Hg6 mi
5:00 AM75 °FPassing clouds.2 mph94%29.77 "Hg6 mi
2:00 AM77 °FPassing clouds.2 mph94%29.77 "Hg6 mi
12:30 AM77 °FPassing clouds.1 mph94%29.80 "Hg6 mi
11:30 PM
Dec 20
77 °FPassing clouds.1 mph94%29.80 "Hg6 mi
11:00 PM77 °FPassing clouds.1 mph94%29.80 "Hg6 mi
Weather by CustomWeather, © 2014

See weather overviewHow to use our weather pages